Hutchinson, MN

3:30 AM CST on November 18, 2017 (GMT -0600)
Hutchinson Municipal-Butler

Weather History for KHCD - November, 2012

Change the Weather History Date:

Thursday, November 1, 2012

  Actual Average Record
Temperature  
Mean Temperature 38 °F -  
Max Temperature 46 °F 50 °F 71 °F (1990)
Min Temperature 29 °F 31 °F 15 °F (1996)
Degree Days  
Heating Degree Days 26    
Moisture  
Dew Point 31 °F    
Average Humidity 70    
Maximum Humidity 90    
Minimum Humidity 50    
Precipitation  
Precipitation 0.00 in - - ()
Sea Level Pressure  
Sea Level Pressure 30.00 in    
Wind  
Wind Speed 8 mph (NNW)    
Max Wind Speed 18 mph    
Max Gust Speed 25 mph    
Visibility 10 miles    
Events      
Averages and records for this station are not official NWS values.
T = Trace of Precipitation, MM = Missing Value Source: NWS Daily Summary

Daily Weather History Graph

Daily Weather History Graph

Search for Another Location

Airport or City:

Trip Planner

Search our weather history database for the weather conditions in past years. The results will help you decide how hot, cold, wet, or windy it might be!

Date:

Astronomy

Nov. 01, 2012 Rise Set
Actual Time 7:56 AM CDT 6:05 PM CDT
Civil Twilight 7:25 AM CDT 6:35 PM CDT
Nautical Twilight 6:51 AM CDT 7:10 PM CDT
Astronomical Twilight 6:17 AM CDT 7:44 PM CDT
Moon 7:57 PM CDT (11/1) 10:35 AM CDT (11/1)
Length of Visible Light 11h 09m
Length of Day
10h 08m
Waning Gibbous, 93% of the Moon is Illuminated
Nov 1
Waning Gibbous
Nov 6
Last Quarter
Nov 13
New
Nov 20
First Quarter
Nov 28
Full

Hourly Weather History & Observations

Time (CDT) Temp. Windchill Dew Point Humidity Pressure Visibility Wind Dir Wind Speed Gust Speed Precip Events Conditions
12:08 AM 41.9 °F - 32.9 °F 70% 29.93 in 10.0 mi Calm Calm - N/A   Overcast
12:29 AM 41.7 °F - 33.4 °F 72% 29.93 in 10.0 mi Calm Calm - N/A   Overcast
1:09 AM 41.5 °F - 34.7 °F 77% 29.93 in 10.0 mi Calm Calm - N/A   Overcast
1:29 AM 41.5 °F - 33.8 °F 74% 29.93 in 10.0 mi Calm Calm - N/A   Overcast
2:09 AM 41.5 °F 38.6 °F 33.4 °F 73% 29.93 in 10.0 mi WNW 4.6 mph - N/A   Overcast
2:29 AM 43.7 °F 39.7 °F 33.3 °F 67% 29.94 in 10.0 mi WNW 6.9 mph - N/A   Overcast
3:09 AM 46.6 °F - 37.6 °F 71% 29.94 in 10.0 mi NNW 9.2 mph - N/A   Mostly Cloudy
3:29 AM 44.1 °F 38.6 °F 36.5 °F 75% 29.94 in 10.0 mi NW 10.4 mph - N/A   Scattered Clouds
3:48 AM 42.8 °F 37.0 °F 36.5 °F 78% 29.95 in 10.0 mi NW 10.4 mph - N/A   Clear
4:09 AM 41.7 °F 36.1 °F 36.1 °F 81% 29.95 in 10.0 mi WNW 9.2 mph - N/A   Scattered Clouds
4:29 AM 40.6 °F 33.8 °F 36.7 °F 86% 29.96 in 10.0 mi NW 11.5 mph 17.3 mph N/A   Scattered Clouds
4:48 AM 40.3 °F 33.4 °F 36.5 °F 86% 29.96 in 10.0 mi NW 11.5 mph - N/A   Clear
5:08 AM 39.2 °F 32.0 °F 35.8 °F 88% 29.96 in 10.0 mi NW 11.5 mph - N/A   Clear
5:28 AM 39.2 °F 32.5 °F 36.5 °F 90% 29.96 in 10.0 mi NW 10.4 mph - N/A   Clear
5:48 AM 39.4 °F 32.3 °F 36.7 °F 90% 29.97 in 10.0 mi NW 11.5 mph - N/A   Mostly Cloudy
6:09 AM 41.5 °F 34.6 °F 38.3 °F 88% 29.98 in 10.0 mi NW 12.7 mph - N/A   Overcast
6:29 AM 41.5 °F 33.8 °F 37.8 °F 86% 29.98 in 10.0 mi NNW 15.0 mph - N/A   Overcast
6:49 AM 40.3 °F 33.9 °F 37.0 °F 88% 29.99 in 10.0 mi NNW 10.4 mph 17.3 mph N/A   Scattered Clouds
7:09 AM 39.2 °F 31.6 °F 35.6 °F 87% 29.99 in 10.0 mi NNW 12.7 mph - N/A   Clear
7:27 AM 39.2 °F 32.0 °F 35.6 °F 87% 29.99 in 10.0 mi NW 11.5 mph - N/A   Clear
7:49 AM 39.2 °F 30.8 °F 34.5 °F 83% 30.00 in 10.0 mi NNW 15.0 mph 19.6 mph N/A   Scattered Clouds
8:28 AM 39.6 °F 31.3 °F 32.5 °F 76% 30.01 in 10.0 mi NNW 15.0 mph - N/A   Mostly Cloudy
9:10 AM 41.0 °F 33.5 °F 32.0 °F 70% 30.01 in 10.0 mi NNW 13.8 mph 18.4 mph N/A   Overcast
9:30 AM 41.0 °F 34.3 °F 32.0 °F 70% 30.01 in 10.0 mi North 11.5 mph 23.0 mph N/A   Overcast
9:50 AM 41.0 °F 32.2 °F 32.0 °F 70% 30.01 in 10.0 mi NNW 18.4 mph 25.3 mph N/A   Overcast
10:10 AM 41.0 °F 32.8 °F 32.0 °F 70% 30.02 in 10.0 mi NW 16.1 mph 21.9 mph N/A   Mostly Cloudy
10:30 AM 41.0 °F 33.5 °F 32.0 °F 70% 30.02 in 10.0 mi NNW 13.8 mph 20.7 mph N/A   Mostly Cloudy
10:50 AM 41.0 °F 33.5 °F 32.0 °F 70% 30.02 in 10.0 mi NNW 13.8 mph 19.6 mph N/A   Scattered Clouds
11:10 AM 42.8 °F 35.4 °F 32.0 °F 66% 30.03 in 10.0 mi NNW 15.0 mph - N/A   Clear
11:30 AM 42.8 °F 36.2 °F 32.0 °F 66% 30.02 in 10.0 mi NW 12.7 mph 18.4 mph N/A   Scattered Clouds
11:51 AM 42.8 °F 35.4 °F 31.5 °F 64% 30.02 in 10.0 mi NNW 15.0 mph 20.7 mph N/A   Scattered Clouds
12:09 PM 43.2 °F 36.2 °F 31.3 °F 63% 30.02 in 10.0 mi NNW 13.8 mph - N/A   Clear
12:29 PM 44.1 °F 37.7 °F 31.8 °F 62% 30.01 in 10.0 mi NW 12.7 mph 16.1 mph N/A   Clear
12:49 PM 44.8 °F 38.0 °F 31.8 °F 60% 30.01 in 10.0 mi NNW 15.0 mph 19.6 mph N/A   Clear
1:09 PM 44.4 °F 38.6 °F 30.7 °F 59% 30.01 in 10.0 mi NNW 11.5 mph 20.7 mph N/A   Clear
1:29 PM 45.7 °F 39.8 °F 31.3 °F 57% 30.00 in 10.0 mi NNW 12.7 mph 18.4 mph N/A   Clear
1:49 PM 46.6 °F - 31.8 °F 56% 29.99 in 10.0 mi WNW 12.7 mph 19.6 mph N/A   Clear
2:09 PM 46.6 °F - 31.1 °F 55% 29.99 in 10.0 mi NW 16.1 mph 21.9 mph N/A   Clear
2:28 PM 46.6 °F - 30.9 °F 54% 29.99 in 10.0 mi NW 12.7 mph 19.6 mph N/A   Clear
2:49 PM 46.6 °F - 29.8 °F 52% 29.99 in 10.0 mi NW 17.3 mph - N/A   Clear
3:09 PM 46.6 °F - 29.7 °F 52% 29.99 in 10.0 mi NNW 15.0 mph - N/A   Clear
3:49 PM 46.6 °F - 29.1 °F 51% 29.99 in 10.0 mi NNW 16.1 mph 19.6 mph N/A   Clear
4:09 PM 46.6 °F - 28.9 °F 50% 29.98 in 10.0 mi NNW 12.7 mph 19.6 mph N/A   Clear
4:29 PM 45.5 °F 39.2 °F 28.4 °F 51% 29.99 in 10.0 mi NNW 13.8 mph - N/A   Clear
4:49 PM 44.1 °F 37.4 °F 27.7 °F 53% 30.00 in 10.0 mi NW 13.8 mph 19.6 mph N/A   Clear
5:09 PM 43.0 °F 36.4 °F 26.4 °F 52% 30.00 in 10.0 mi NW 12.7 mph - N/A   Clear
5:28 PM 42.1 °F 35.7 °F 25.5 °F 52% 30.00 in 10.0 mi NNW 11.5 mph 17.3 mph N/A   Clear
5:49 PM 40.3 °F 33.9 °F 25.9 °F 56% 30.00 in 10.0 mi NNW 10.4 mph - N/A   Clear
6:09 PM 39.2 °F 34.2 °F 25.9 °F 59% 30.00 in 10.0 mi NNW 6.9 mph - N/A   Clear
6:28 PM 36.5 °F 32.7 °F 25.3 °F 64% 30.00 in 10.0 mi North 4.6 mph - N/A   Clear
6:49 PM 36.5 °F 31.8 °F 26.2 °F 66% 30.01 in 10.0 mi North 5.8 mph - N/A   Clear
7:09 PM 36.5 °F 33.9 °F 25.9 °F 65% 30.01 in 10.0 mi North 3.5 mph - N/A   Clear
7:29 PM 36.5 °F 28.2 °F 25.9 °F 65% 30.02 in 10.0 mi NNE 12.7 mph 17.3 mph N/A   Clear
7:49 PM 36.5 °F 28.7 °F 26.8 °F 68% 30.03 in 10.0 mi NNE 11.5 mph - N/A   Clear
8:08 PM 35.2 °F 28.1 °F 25.9 °F 69% 30.03 in 10.0 mi NNE 9.2 mph - N/A   Clear
8:28 PM 34.0 °F 28.8 °F 25.3 °F 71% 30.03 in 10.0 mi NNE 5.8 mph - N/A   Clear
8:49 PM 34.0 °F 28.0 °F 26.1 °F 73% 30.04 in 10.0 mi NNE 6.9 mph - N/A   Clear
9:09 PM 34.0 °F 27.2 °F 26.4 °F 74% 30.03 in 10.0 mi NNE 8.1 mph - N/A   Clear
9:28 PM 34.0 °F 28.0 °F 26.2 °F 73% 30.04 in 10.0 mi NNE 6.9 mph - N/A   Clear
9:49 PM 34.0 °F 28.8 °F 26.4 °F 74% 30.04 in 10.0 mi NNE 5.8 mph - N/A   Clear
10:09 PM 34.0 °F 28.8 °F 26.8 °F 75% 30.04 in 10.0 mi NNE 5.8 mph - N/A   Clear
10:29 PM 31.8 °F 25.4 °F 24.6 °F 75% 30.04 in 10.0 mi NNE 6.9 mph - N/A   Clear
10:49 PM 31.8 °F 24.6 °F 24.6 °F 75% 30.04 in 10.0 mi NNE 8.1 mph - N/A   Clear
11:09 PM 31.8 °F 26.2 °F 24.8 °F 75% 30.04 in 10.0 mi NNE 5.8 mph - N/A   Clear
11:28 PM 31.8 °F 28.5 °F 24.8 °F 75% 30.05 in 10.0 mi North 3.5 mph - N/A   Clear
11:49 PM 29.7 °F - 24.1 °F 80% 30.05 in 10.0 mi Calm Calm - N/A   Clear